User: anonymous   Login
Location: ??????
(42.0089°N, 44.3281°E)
Time: 01:04:49
(UTC+00:00)
Language:

Cosmos 1892 Rocket - Orbit

View from above orbital plane
View from above orbital plane
View from above satellite
View from above satellite

Ground track
Ground track

The orbit data is extracted from the following two-line orbital elements,

1 18422U 87088B   22019.51118073  .00000235  00000-0  25910-4 0  9999
2 18422  82.5101  44.9407 0018452 317.2923 153.6864 14.83119642829327
Epoch (UTC): 19 January 2022 12:16:06
Eccentricity: 0.0018452
inclination: 82.5101°
perigee height: 606 km
apogee height: 632 km
right ascension of ascending node: 44.9407°
argument of perigee: 317.2923°
revolutions per day: 14.83119642
mean anomaly at epoch: 153.6864°
orbit number at epoch: 82932

The dashed part of the orbit path shows where the satellite is in the earth's shadow,  

DLR